R/V Knorr Calliope CSV data file - KN193_II  (Time stamps are GMT)
Date, Time_GMT, Depth12, Depth35, Air_Temp, WXT5_Ta, WXT5_Pa, dec_lat, dec_lon, EDO_knt, GPS_COG, GPS_SOG, Gyro, IMET_BPR, IMET_SWR, WXT5_Ri, WXT5_Rc, HRH, WXT5_Ua, WXT5_Dm, WXT5_Sm, SBE45C, SBE45S, SBE45T, Salinity, SSCND, Fluorometer, SSTMP, SSV, Wnd_Dir, TWD_5, Wnd_Spd, TWS_5, HdChkSum=52
2008/04/15, 00:00:43, 2299.00, 0.00, -2.11, -1.40, 1003.7, 76.7926550, 9.8147800, , 345.10, 10.11, 341.90, 1003.77, 0.20, 0.5, 33.42, 85.38, 91.3, 359, 15.7, 33.23680, 34.72700, 5.0184, 34.7270, 33.2368, 83.20, 3.4341, 1463.90, 26.70, 336.8, 13.44, 9.9, 52
2008/04/15, 00:01:44, 2297.00, 0.00, -2.17, -1.40, 1004.1, 76.7956230, 9.8106530, , 342.30, 11.24, 341.90, 1004.33, 0.30, 2.1, 33.45, 85.57, 91.3, 343, 15.5, 33.22010, 34.72860, 4.9983, 34.7286, 33.2201, 83.20, 3.4166, 1463.82, 31.20, 311.9, 14.08, 10.2, 52
2008/04/15, 00:02:43, 2303.00, 0.00, -1.97, -1.40, 1003.6, 76.7986470, 9.8065330, , 338.50, 11.93, 340.70, 1004.51, 0.40, 2.5, 33.50, 85.52, 91.2, 5, 16.0, 33.22970, 34.73030, 5.0074, 34.7303, 33.2297, 84.20, 3.3941, 1463.73, 35.20, 342.5, 13.41, 10.0, 52
2008/04/15, 00:03:44, 2296.00, 0.00, -1.94, -1.30, 1003.5, 76.8016970, 9.8026450, , 340.70, 11.40, 341.80, 1004.03, 0.10, 3.6, 33.57, 85.74, 91.7, 331, 13.7, 33.19470, 34.72620, 4.9724, 34.7262, 33.1947, 84.20, 3.3764, 1463.65, 27.80, 292.1, 13.01, 9.4, 52
2008/04/15, 00:04:43, 2299.00, 0.00, -2.14, -1.30, 1003.6, 76.8047470, 9.7984700, , 344.40, 11.99, 341.70, 1003.99, 0.10, 1.3, 33.58, 85.94, 91.7, 21, 18.0, 33.18150, 34.72480, 4.9592, 34.7248, 33.1815, 83.00, 3.3435, 1463.51, 30.60, 8.7, 14.31, 12.3, 52
2008/04/15, 00:05:43, 2297.00, 0.00, -2.11, -1.40, 1003.6, 76.8076870, 9.7943070, , 342.10, 10.58, 339.30, 1004.65, 0.00, 0.1, 33.59, 85.96, 91.8, 15, 18.2, 33.18300, 34.72680, 4.9588, 34.7268, 33.1830, 81.70, 3.2957, 1463.31, 27.30, 358.0, 13.74, 13.0, 52
2008/04/15, 00:06:43, 2296.00, 0.00, -2.25, -1.40, 1003.6, 76.8106900, 9.7900700, , 340.60, 12.01, 339.90, 1004.01, 0.00, 3.1, 33.64, 85.94, 91.5, 290, 10.3, 33.17250, 34.72930, 4.9448, 34.7293, 33.1725, 82.40, 3.2485, 1463.11, 26.40, 232.4, 13.60, 10.5, 52
2008/04/15, 00:07:43, 0.00, 0.00, -2.19, -1.50, 1003.9, 76.8136480, 9.7854450, , 340.50, 11.05, 340.80, 1004.20, 0.10, 1.2, 33.66, 85.86, 91.5, 339, 15.2, 33.17970, 34.72910, 4.9530, 34.7291, 33.1797, 83.60, 3.2061, 1462.93, 33.60, 303.7, 13.18, 10.3, 52
2008/04/15, 00:08:43, 2295.00, 0.00, -2.06, -1.40, 1003.3, 76.8166420, 9.7809280, , 339.50, 10.78, 339.70, 1004.83, 0.20, 2.1, 33.69, 85.86, 91.9, 10, 15.4, 33.16500, 34.72760, 4.9381, 34.7276, 33.1650, 83.20, 3.1727, 1462.79, 25.90, 351.4, 13.80, 9.4, 52
2008/04/15, 00:09:43, 2296.00, 0.00, -2.19, -1.50, 1003.9, 76.8195500, 9.7764270, , 340.60, 10.38, 341.10, 1004.38, 0.40, 1.1, 33.72, 85.94, 91.6, 295, 9.9, 33.14710, 34.72530, 4.9204, 34.7253, 33.1471, 81.70, 3.1519, 1462.70, 31.00, 240.0, 13.96, 9.5, 52
2008/04/15, 00:10:43, 2300.00, 0.00, -2.17, -1.40, 1003.6, 76.8225220, 9.7716420, , 339.90, 10.90, 341.20, 1004.19, 0.40, 0.9, 33.73, 86.01, 91.7, 358, 14.8, 33.11310, 34.72190, 4.8858, 34.7219, 33.1131, 77.80, 3.1415, 1462.65, 28.30, 333.8, 13.61, 9.1, 52
2008/04/15, 00:11:44, 2295.00, 0.00, -2.39, -1.50, 1003.5, 76.8255730, 9.7670320, , 338.80, 10.82, 341.00, 1003.83, 0.30, 2.1, 33.76, 85.79, 91.6, 342, 17.3, 33.09360, 34.72060, 4.8654, 34.7206, 33.0936, 76.30, 3.1373, 1462.63, 24.30, 311.8, 13.45, 11.9, 52
2008/04/15, 00:12:43, 2294.00, 0.00, -2.17, -1.60, 1003.3, 76.8285450, 9.7622500, , 341.70, 10.17, 341.60, 1004.29, 0.30, 1.0, 33.79, 85.72, 91.3, 295, 14.3, 33.06820, 34.72140, 4.8363, 34.7214, 33.0682, 79.60, 3.1456, 1462.66, 24.90, 252.5, 13.23, 13.0, 52
2008/04/15, 00:13:43, 2293.00, 0.00, -1.89, -1.50, 1003.7, 76.8315170, 9.7577970, , 340.00, 12.15, 340.30, 1004.48, 0.50, 3.3, 33.84, 85.94, 91.8, 231, 9.1, 33.01290, 34.72170, 4.7745, 34.7217, 33.0129, 82.70, 3.1645, 1462.75, 32.30, 189.4, 11.57, 13.8, 52
2008/04/15, 00:14:44, 2292.00, 0.00, -2.11, -1.40, 1003.1, 76.8343880, 9.7532350, , 344.20, 10.94, 341.70, 1004.42, 0.30, 1.5, 33.86, 86.16, 92.3, 23, 19.1, 32.97160, 34.72010, 4.7301, 34.7201, 32.9716, 83.90, 3.1888, 1462.85, 27.50, 12.6, 13.20, 13.8, 52
2008/04/15, 00:15:44, 2294.00, 0.00, -2.17, -1.40, 1004.0, 76.8373950, 9.7486770, , 345.60, 12.14, 343.50, 1004.26, 0.30, 5.2, 33.96, 86.03, 91.7, 351, 14.6, 32.91180, 34.71990, 4.6635, 34.7199, 32.9118, 83.00, 3.2116, 1462.94, 36.10, 326.6, 12.92, 8.7, 52
2008/04/15, 00:16:43, 2291.00, 0.00, -2.19, -1.50, 1003.7, 76.8403020, 9.7443180, , 342.40, 10.08, 341.80, 1004.39, 0.10, 3.4, 34.00, 85.82, 91.5, 28, 17.1, 32.87380, 34.71910, 4.6220, 34.7191, 32.8738, 82.40, 3.2414, 1463.07, 24.60, 18.4, 14.05, 12.6, 52
2008/04/15, 00:17:43, 2291.00, 0.00, -2.22, -1.60, 1003.7, 76.8431600, 9.7401050, , 342.00, 11.86, 341.00, 1004.54, 0.10, 1.3, 34.02, 85.77, 91.2, 333, 10.9, 32.85190, 34.71990, 4.5968, 34.7199, 32.8519, 83.00, 3.2677, 1463.18, 28.60, 285.0, 12.61, 6.4, 52
2008/04/15, 00:18:43, 2295.00, 0.00, -2.33, -1.60, 1003.5, 76.8459700, 9.7356530, , 343.50, 11.25, 342.90, 1004.49, 0.20, 0.6, 34.04, 85.82, 91.3, 2, 12.0, 32.86000, 34.72070, 4.6050, 34.7207, 32.8600, 83.00, 3.2867, 1463.26, 31.90, 343.6, 12.74, 6.2, 52
2008/04/15, 00:19:44, 2289.00, 0.00, -2.22, -1.60, 1003.6, 76.8487680, 9.7315200, , 340.70, 11.73, 341.40, 1004.47, 0.30, 2.3, 34.08, 85.77, 91.6, 343, 13.1, 32.87740, 34.72140, 4.6237, 34.7214, 32.8774, 82.70, 3.3019, 1463.33, 27.30, 305.7, 12.45, 7.6, 52
2008/04/15, 00:20:43, 2288.00, 0.00, -2.17, -1.50, 1003.4, 76.8515830, 9.7271770, , 340.50, 10.76, 341.00, 1004.72, 0.30, 0.9, 34.09, 85.77, 91.4, 15, 15.3, 32.87510, 34.72270, 4.6199, 34.7227, 32.8751, 80.50, 3.3135, 1463.38, 27.40, 1.1, 13.07, 10.0, 52
2008/04/15, 00:21:44, 2287.00, 0.00, -2.08, -1.60, 1003.6, 76.8545200, 9.7225930, , 339.90, 11.37, 341.70, 1004.45, 0.30, 2.2, 34.13, 85.72, 91.3, 20, 15.6, 32.90950, 34.72330, 4.6577, 34.7233, 32.9095, 79.60, 3.3218, 1463.41, 30.70, 8.7, 13.31, 10.3, 52
2008/04/15, 00:22:44, 2289.00, 0.00, -1.97, -1.50, 1003.8, 76.8573570, 9.7186130, , 342.00, 10.99, 341.60, 1004.16, 0.40, 1.0, 34.15, 86.11, 91.9, 357, 14.4, 32.93890, 34.72280, 4.6910, 34.7228, 32.9389, 78.70, 3.3310, 1463.45, 32.50, 333.1, 12.55, 8.9, 52
2008/04/15, 00:23:44, 2295.00, 0.00, -2.11, -1.30, 1003.5, 76.8602820, 9.7139870, , 343.60, 11.10, 341.00, 1004.28, 0.30, 1.6, 34.18, 86.18, 92.1, 5, 15.6, 32.97410, 34.72390, 4.7291, 34.7239, 32.9741, 79.00, 3.3481, 1463.53, 26.40, 345.6, 13.14, 9.4, 52
2008/04/15, 00:24:43, 2286.00, 0.00, -2.14, -1.40, 1003.4, 76.8630920, 9.7094900, , 340.60, 11.50, 341.60, 1004.49, 0.10, 1.1, 34.21, 86.35, 92.0, 314, 12.4, 33.00870, 34.72660, 4.7651, 34.7266, 33.0087, 79.90, 3.3734, 1463.64, 29.60, 265.5, 13.75, 9.7, 52
2008/04/15, 00:25:44, 2283.00, 0.00, -2.28, -1.40, 1003.3, 76.8659930, 9.7053330, , 340.60, 11.85, 339.70, 1004.46, 0.20, 8.8, 34.36, 86.38, 91.8, 320, 8.1, 33.05300, 34.72830, 4.8128, 34.7283, 33.0530, 80.20, 3.3980, 1463.74, 23.00, 248.5, 13.45, 5.6, 52
2008/04/15, 00:26:43, 2283.00, 0.00, -2.08, -1.50, 1003.2, 76.8688200, 9.7008270, , 340.40, 10.12, 341.00, 1004.32, -0.20, 8.3, 34.48, 86.28, 91.9, 14, 17.4, 33.07280, 34.72880, 4.8343, 34.7288, 33.0728, 80.80, 3.4142, 1463.81, 22.30, 357.5, 14.21, 12.8, 52
2008/04/15, 00:27:43, 2281.00, 0.00, -2.42, -1.50, 1003.4, 76.8716500, 9.6965270, , 340.90, 9.88, 340.30, 1004.27, 0.10, 6.3, 34.60, 86.42, 92.3, 308, 6.2, 33.08680, 34.72850, 4.8502, 34.7285, 33.0868, 80.50, 3.4255, 1463.86, 22.90, 228.5, 14.16, 5.3, 52
2008/04/15, 00:28:43, 2278.00, 0.00, -2.36, -1.60, 1003.7, 76.8744830, 9.6922920, , 339.40, 10.99, 340.20, 1004.25, 0.00, 7.7, 34.73, 86.40, 91.7, 333, 8.2, 33.10730, 34.72720, 4.8743, 34.7272, 33.1073, 80.50, 3.4362, 1463.91, 25.90, 274.2, 13.97, 4.3, 52
2008/04/15, 00:29:43, 2274.00, 0.00, -2.53, -1.70, 1003.0, 76.8772920, 9.6879020, , 343.00, 11.03, 340.50, 1004.49, 0.10, 8.9, 34.87, 86.28, 91.9, 17, 21.6, 33.09790, 34.72960, 4.8615, 34.7296, 33.0979, 81.70, 3.4430, 1463.94, 23.30, 1.8, 13.91, 15.5, 52
2008/04/15, 00:30:43, 2272.00, 0.00, -2.31, -1.80, 1003.4, 76.8802070, 9.6834430, , 339.30, 11.14, 342.40, 1004.12, 0.20, 0.6, 34.88, 86.38, 92.0, 13, 15.6, 33.09190, 34.73120, 4.8533, 34.7312, 33.0919, 82.70, 3.4444, 1463.94, 24.80, 358.6, 14.15, 10.2, 52
2008/04/15, 00:31:43, 2272.00, 0.00, -2.36, -1.70, 1003.4, 76.8830800, 9.6791520, , 337.50, 10.12, 340.70, 1004.24, 0.20, 4.5, 34.95, 86.40, 92.3, 15, 18.1, 33.10960, 34.73200, 4.8723, 34.7320, 33.1096, 84.20, 3.4428, 1463.94, 23.20, 357.7, 14.79, 12.7, 52
2008/04/15, 00:32:43, 2272.00, 0.00, -2.36, -1.70, 1003.2, 76.8858170, 9.6749120, , 337.50, 9.37, 339.40, 1004.77, 0.30, 2.1, 34.99, 86.21, 91.9, 1, 15.2, 33.13270, 34.73480, 4.8953, 34.7348, 33.1327, 85.10, 3.4359, 1463.91, 23.20, 336.9, 14.03, 10.0, 52
2008/04/15, 00:33:43, 2269.00, 0.00, -2.28, -1.70, 1003.6, 76.8884800, 9.6705630, , 341.50, 10.44, 340.60, 1004.37, 0.30, 8.8, 35.14, 86.28, 91.8, 16, 19.2, 33.16680, 34.73650, 4.9315, 34.7365, 33.1668, 85.70, 3.4214, 1463.85, 21.00, 359.8, 13.98, 13.7, 52
2008/04/15, 00:34:43, 2267.00, 0.00, -2.42, -1.70, 1003.7, 76.8911230, 9.6667130, , 340.70, 9.99, 342.10, 1004.24, 0.40, 2.4, 35.21, 86.11, 91.9, 355, 11.7, 33.20640, 34.73600, 4.9760, 34.7360, 33.2064, 86.60, 3.4056, 1463.79, 26.10, 330.5, 13.77, 7.2, 52
2008/04/15, 00:35:43, 2266.00, 0.00, -2.39, -1.70, 1003.3, 76.8937320, 9.6624300, , 339.90, 10.50, 341.00, 1004.17, 0.30, 7.1, 35.30, 86.25, 91.5, 15, 16.6, 33.20400, 34.73750, 4.9720, 34.7375, 33.2040, 86.60, 3.3897, 1463.72, 23.00, 0.4, 13.98, 11.4, 52
2008/04/15, 00:36:43, 2262.00, 0.00, -2.36, -1.70, 1003.7, 76.8964700, 9.6582230, , 342.50, 10.78, 341.50, 1004.62, 0.40, 3.0, 35.36, 85.94, 91.8, 291, 7.0, 33.22430, 34.73770, 4.9944, 34.7377, 33.2243, 87.60, 3.3785, 1463.68, 30.40, 224.0, 13.05, 7.4, 52
2008/04/15, 00:37:44, 2260.00, 0.00, -2.39, -1.70, 1003.7, 76.8992030, 9.6535120, , 338.80, 10.27, 340.50, 1004.13, 0.50, 2.7, 35.41, 85.96, 91.8, 349, 14.7, 33.21300, 34.73860, 4.9809, 34.7386, 33.2130, 86.90, 3.3739, 1463.66, 23.50, 322.3, 14.05, 10.0, 52
2008/04/15, 00:38:44, 2259.00, 0.00, -2.31, -1.70, 1003.7, 76.9018820, 9.6486180, , 341.20, 9.18, 340.70, 1004.64, 0.40, 2.6, 35.45, 85.60, 90.9, 280, 7.2, 33.21740, 34.73810, 4.9863, 34.7381, 33.2174, 86.90, 3.3814, 1463.69, 26.50, 220.8, 13.05, 8.0, 52
2008/04/15, 00:39:43, 2257.00, 0.00, -2.39, -1.60, 1003.4, 76.9047480, 9.6439150, , 343.90, 10.67, 342.80, 1004.17, 0.50, 2.0, 35.49, 85.64, 91.6, 324, 14.3, 33.21190, 34.73670, 4.9815, 34.7367, 33.2119, 86.60, 3.3998, 1463.76, 23.30, 289.2, 13.39, 10.7, 52
2008/04/15, 00:40:43, 2252.00, 0.00, -2.19, -1.60, 1003.6, 76.9075920, 9.6390830, , 335.90, 11.00, 340.20, 1004.48, 0.10, 2.7, 35.53, 85.74, 91.3, 14, 20.0, 33.20460, 34.73580, 4.9743, 34.7358, 33.2046, 85.10, 3.4316, 1463.90, 20.70, 355.4, 12.76, 15.3, 52
2008/04/15, 00:41:44, 2248.00, 0.00, -2.39, -1.60, 1003.5, 76.9104500, 9.6341050, , 334.50, 11.63, 339.70, 1004.17, 0.10, 1.5, 35.55, 85.38, 91.0, 352, 15.9, 33.19080, 34.73290, 4.9616, 34.7329, 33.1908, 83.00, 3.4739, 1464.07, 25.80, 325.3, 13.36, 9.9, 52
2008/04/15, 00:42:44, 2243.00, 0.00, -2.33, -1.60, 1003.9, 76.9133100, 9.6289730, , 340.30, 11.72, 341.30, 1004.60, 0.30, 1.5, 35.58, 85.62, 91.6, 356, 11.4, 33.16750, 34.72990, 4.9387, 34.7299, 33.1675, 81.50, 3.5197, 1464.26, 24.70, 329.7, 12.61, 5.5, 52
2008/04/15, 00:43:43, 2235.00, 0.00, -2.36, -1.60, 1003.3, 76.9163320, 9.6236420, , 340.20, 11.08, 342.40, 1004.23, 0.30, 3.7, 35.65, 85.55, 90.9, 301, 8.0, 33.13380, 34.72990, 4.9012, 34.7299, 33.1338, 82.00, 3.5734, 1464.48, 24.70, 235.0, 13.81, 7.1, 52
2008/04/15, 00:44:44, 2233.00, 0.00, -2.33, -1.70, 1003.3, 76.9191780, 9.6186300, , 341.50, 11.28, 342.80, 1004.14, 0.30, 7.8, 35.78, 85.28, 90.9, 329, 11.5, 33.11380, 34.73050, 4.8784, 34.7305, 33.1138, 82.70, 3.6299, 1464.72, 22.50, 283.1, 13.07, 6.9, 52
2008/04/15, 00:45:43, 2232.00, 0.00, -2.42, -1.70, 1003.3, 76.9221820, 9.6135000, , 338.00, 12.59, 343.00, 1004.01, 0.10, 4.9, 35.87, 85.21, 90.4, 316, 12.9, 33.11130, 34.73180, 4.8744, 34.7318, 33.1113, 83.90, 3.6854, 1464.96, 26.00, 269.2, 13.03, 9.6, 52
2008/04/15, 00:46:43, 2231.00, 0.00, -2.47, -1.70, 1003.5, 76.9250930, 9.6083170, , 336.50, 11.53, 340.80, 1004.49, 0.50, 2.3, 35.89, 85.25, 91.0, 14, 19.0, 33.12090, 34.73290, 4.8839, 34.7329, 33.1209, 84.80, 3.7357, 1465.17, 22.30, 357.2, 12.95, 13.8, 52
2008/04/15, 00:47:43, 2232.00, 0.00, -2.44, -1.70, 1003.6, 76.9279830, 9.6036200, , 342.20, 10.79, 343.30, 1004.37, 0.40, 1.1, 35.92, 84.67, 90.3, 334, 10.6, 33.14430, 34.73610, 4.9070, 34.7361, 33.1443, 85.70, 3.7792, 1465.36, 29.60, 290.4, 12.98, 5.9, 52
2008/04/15, 00:48:43, 2231.00, 0.00, -2.33, -1.70, 1004.0, 76.9309870, 9.5986180, , 334.40, 10.89, 341.30, 1004.37, 0.50, 4.8, 36.00, 84.74, 90.6, 8, 15.8, 33.18080, 34.73920, 4.9446, 34.7392, 33.1808, 86.00, 3.8094, 1465.49, 24.40, 350.4, 13.24, 10.0, 52
2008/04/15, 00:49:43, 2229.00, 0.00, -2.42, -1.70, 1003.7, 76.9339470, 9.5934130, , 337.00, 11.28, 340.30, 1004.33, 0.30, 0.9, 36.02, 84.42, 90.1, 350, 13.8, 33.23090, 34.74270, 4.9969, 34.7427, 33.2309, 86.40, 3.8200, 1465.54, 26.10, 321.8, 12.80, 8.4, 52
2008/04/15, 00:50:43, 2229.00, 0.00, -2.56, -1.70, 1003.7, 76.9369780, 9.5884200, , 338.50, 10.24, 342.50, 1004.32, 0.40, 0.5, 36.02, 83.76, 89.4, 355, 14.7, 33.28890, 34.74520, 5.0589, 34.7452, 33.2889, 86.40, 3.8170, 1465.53, 29.00, 332.2, 14.10, 9.7, 52
2008/04/15, 00:51:43, 2226.00, 0.00, -2.56, -1.80, 1003.6, 76.9398980, 9.5833430, , 342.70, 10.53, 340.20, 1004.35, 0.30, 0.2, 36.03, 82.68, 88.3, 341, 13.4, 33.33900, 34.74720, 5.1126, 34.7472, 33.3390, 86.40, 3.8078, 1465.49, 27.80, 303.9, 13.53, 7.8, 52
2008/04/15, 00:52:43, 2225.00, 0.00, -2.33, -1.90, 1003.3, 76.9427420, 9.5783470, , 337.30, 11.44, 340.80, 1004.08, 0.40, 0.9, 36.04, 82.90, 88.7, 19, 15.3, 33.41500, 34.75100, 5.1932, 34.7510, 33.4150, 86.00, 3.8006, 1465.47, 28.70, 9.1, 12.91, 10.0, 52
2008/04/15, 00:53:43, 2223.00, 0.00, -2.36, -1.80, 1003.9, 76.9456530, 9.5733230, , 341.80, 11.14, 340.90, 1004.06, 0.40, 0.0, 36.04, 83.39, 89.3, 9, 21.2, 33.47980, 34.75200, 5.2641, 34.7520, 33.4798, 86.00, 3.7997, 1465.47, 27.00, 350.7, 12.68, 15.6, 52
2008/04/15, 00:54:44, 2221.00, 0.00, -2.42, -1.80, 1003.7, 76.9485830, 9.5684700, , 340.50, 11.45, 340.90, 1004.54, 0.50, 0.7, 36.05, 83.10, 88.8, 2, 14.0, 33.52810, 34.75440, 5.3152, 34.7544, 33.5281, 86.60, 3.8059, 1465.49, 25.40, 339.1, 12.79, 8.2, 52
2008/04/15, 00:55:43, 2220.00, 0.00, -2.50, -1.80, 1003.7, 76.9514650, 9.5635350, , 339.90, 10.96, 340.80, 1004.54, 0.50, 0.0, 36.05, 82.73, 88.7, 12, 12.4, 33.56660, 34.75350, 5.3587, 34.7535, 33.5666, 87.60, 3.8168, 1465.54, 22.90, 2.7, 13.06, 6.6, 52
2008/04/15, 00:56:44, 2222.00, 0.00, -2.36, -1.80, 1003.7, 76.9544970, 9.5587780, , 342.70, 10.40, 342.30, 1004.08, 0.50, 0.4, 36.06, 82.75, 88.7, 354, 12.9, 33.58780, 34.75050, 5.3850, 34.7505, 33.5878, 86.90, 3.8290, 1465.59, 25.90, 327.1, 12.89, 7.2, 52
2008/04/15, 00:57:44, 2224.00, 0.00, -2.61, -1.70, 1003.3, 76.9574570, 9.5542650, , 340.60, 11.86, 342.30, 1004.21, 0.60, 0.0, 36.06, 82.39, 88.8, 15, 16.0, 33.58390, 34.74090, 5.3900, 34.7409, 33.5839, 86.00, 3.8454, 1465.64, 25.90, 2.2, 12.09, 10.3, 52
2008/04/15, 00:58:43, 2220.00, 0.00, -2.36, -1.80, 1003.8, 76.9603330, 9.5502170, , 341.10, 10.96, 341.90, 1004.43, 0.40, 1.3, 36.09, 82.26, 87.6, 322, 11.5, 33.55490, 34.72580, 5.3724, 34.7258, 33.5549, 87.20, 3.8646, 1465.70, 24.90, 273.3, 13.09, 8.1, 52
2008/04/15, 00:59:43, 2217.00, 0.00, -2.47, -1.80, 1003.9, 76.9632400, 9.5458120, , 339.30, 13.01, 339.60, 1004.36, 0.70, 0.2, 36.09, 81.99, 88.4, 18, 21.0, 33.51700, 34.71430, 5.3416, 34.7143, 33.5170, 87.20, 3.8825, 1465.76, 30.10, 1.5, 11.82, 15.1, 52
2008/04/15, 01:00:43, 2212.00, 0.00, -2.53, -1.80, 1003.5, 76.9661920, 9.5412400, , 345.20, 11.38, 341.70, 1004.39, 0.50, 0.0, 36.09, 81.18, 87.4, 11, 13.3, 33.49930, 34.70810, 5.3279, 34.7081, 33.4993, 86.00, 3.9027, 1465.84, 21.20, 357.7, 11.89, 7.4, 52
2008/04/15, 01:01:44, 2215.00, 0.00, -2.56, -1.90, 1003.8, 76.9691750, 9.5370080, , 342.40, 11.17, 341.20, 1004.16, 0.50, 0.0, 36.09, 80.83, 86.5, 17, 17.7, 33.49310, 34.70950, 5.3197, 34.7095, 33.4931, 86.00, 3.9190, 1465.91, 23.40, 0.8, 12.83, 12.2, 52
2008/04/15, 01:02:44, 2216.00, 0.00, -2.50, -1.90, 1003.8, 76.9722120, 9.5326150, , 343.10, 11.91, 342.00, 1004.28, 0.50, 0.0, 36.09, 81.03, 86.5, 12, 13.1, 33.48970, 34.71290, 5.3127, 34.7129, 33.4897, 85.70, 3.9295, 1465.95, 30.60, 358.9, 13.23, 7.0, 52
2008/04/15, 01:03:43, 2221.00, 0.00, -2.28, -1.80, 1003.7, 76.9752900, 9.5284550, , 343.80, 11.85, 340.80, 1003.99, 0.70, 0.3, 36.10, 82.46, 88.6, 355, 16.4, 33.50680, 34.71480, 5.3297, 34.7148, 33.5068, 85.10, 3.9345, 1465.98, 27.70, 328.5, 12.07, 10.4, 52
2008/04/15, 01:04:43, 2220.00, 0.00, -2.42, -1.70, 1003.6, 76.9783570, 9.5241900, , 345.90, 11.73, 343.60, 1004.05, 0.70, 0.1, 36.10, 81.87, 87.8, 13, 18.6, 33.52150, 34.71730, 5.3436, 34.7173, 33.5215, 84.80, 3.9336, 1465.98, 22.90, 358.0, 11.31, 12.8, 52
2008/04/15, 01:05:44, 2222.00, 0.00, -2.39, -1.70, 1003.8, 76.9814200, 9.5201980, , 344.40, 11.59, 341.90, 1004.37, 0.60, 0.4, 36.11, 82.09, 88.2, 12, 16.4, 33.54140, 34.72040, 5.3627, 34.7204, 33.5414, 84.20, 3.9321, 1465.97, 20.10, 356.7, 12.12, 10.9, 52
2008/04/15, 01:06:43, 2223.00, 0.00, -2.39, -1.70, 1004.0, 76.9844370, 9.5162500, , 343.60, 11.61, 339.10, 1004.58, 0.70, 0.0, 36.11, 81.20, 87.1, 14, 14.7, 33.56600, 34.72420, 5.3864, 34.7242, 33.5660, 83.60, 3.9311, 1465.98, 20.90, 357.3, 11.83, 8.7, 52
2008/04/15, 01:07:43, 0.00, 0.00, -2.42, -1.80, 1004.1, 76.9874800, 9.5122470, , 343.30, 10.58, 340.10, 1004.52, 0.70, 0.3, 36.12, 81.37, 87.2, 23, 16.5, 33.59700, 34.72720, 5.4177, 34.7272, 33.5970, 83.90, 3.9332, 1465.99, 26.70, 10.9, 11.76, 11.1, 52
2008/04/15, 01:08:43, 2229.00, 0.00, -2.36, -1.70, 1003.8, 76.9905630, 9.5086130, , 344.60, 12.45, 341.80, 1004.54, 0.80, 0.0, 36.12, 81.69, 87.4, 10, 15.5, 33.61210, 34.72980, 5.4319, 34.7298, 33.6121, 83.00, 3.9352, 1466.00, 33.70, 352.9, 11.33, 9.4, 52
2008/04/15, 01:09:43, 2232.00, 0.00, -2.53, -1.70, 1003.3, 76.9935930, 9.5046470, , 345.30, 11.40, 342.80, 1004.27, 0.60, 0.0, 36.12, 80.90, 87.0, 14, 14.2, 33.63500, 34.73270, 5.4544, 34.7327, 33.6350, 83.00, 3.9351, 1466.01, 29.60, 1.9, 11.51, 8.6, 52
2008/04/15, 01:10:43, 2234.00, 0.00, -2.59, -1.80, 1003.7, 76.9967070, 9.5011870, , 343.10, 12.01, 340.10, 1004.38, 0.60, 0.0, 36.12, 79.64, 85.3, 15, 14.2, 33.64750, 34.73160, 5.4693, 34.7316, 33.6475, 82.40, 3.9339, 1466.00, 26.90, 358.1, 12.16, 8.7, 52
2008/04/15, 01:11:43, 2235.00, 0.00, -2.47, -1.90, 1003.8, 76.9998250, 9.4975250, , 344.60, 11.58, 339.60, 1004.72, 0.70, 0.3, 36.12, 80.43, 85.7, 18, 16.4, 33.63520, 34.72980, 5.4575, 34.7298, 33.6352, 81.50, 3.9308, 1465.98, 26.00, 1.0, 11.20, 10.6, 52
2008/04/15, 01:12:44, 2236.00, 0.00, -2.53, -1.90, 1003.6, 77.0029630, 9.4936370, , 347.30, 10.58, 342.90, 1004.25, 0.80, 0.0, 36.12, 80.88, 86.7, 23, 17.3, 33.62480, 34.72630, 5.4493, 34.7263, 33.6248, 80.80, 3.9252, 1465.96, 30.00, 12.1, 12.79, 11.9, 52
2008/04/15, 01:13:43, 2236.00, 0.00, -2.64, -1.80, 1003.4, 77.0061030, 9.4901170, , 343.90, 11.86, 339.80, 1003.98, 0.70, 0.0, 36.12, 81.97, 87.5, 2, 15.0, 33.61070, 34.72390, 5.4360, 34.7239, 33.6107, 79.90, 3.9221, 1465.94, 17.40, 337.7, 11.73, 8.7, 52
2008/04/15, 01:14:43, 2235.00, 0.00, -2.47, -1.90, 1003.6, 77.0093130, 9.4864200, , 344.70, 13.10, 341.60, 1004.02, 0.80, 1.4, 36.15, 81.47, 86.7, 10, 14.6, 33.62130, 34.72640, 5.4454, 34.7264, 33.6213, 80.50, 3.9192, 1465.93, 22.00, 350.0, 11.27, 8.4, 52
2008/04/15, 01:15:43, 2232.00, 0.00, -2.56, -1.90, 1003.6, 77.0125020, 9.4827570, , 344.80, 11.77, 342.00, 1004.38, 0.80, 0.1, 36.15, 81.52, 86.6, 13, 13.7, 33.60940, 34.72610, 5.4326, 34.7261, 33.6094, 81.20, 3.9180, 1465.92, 24.20, 356.3, 12.35, 8.0, 52
2008/04/15, 01:16:44, 2230.00, 0.00, -2.59, -1.90, 1003.9, 77.0157220, 9.4792600, , 345.60, 12.35, 341.00, 1004.29, 0.80, 0.2, 36.15, 81.92, 87.6, 18, 17.4, 33.62920, 34.72880, 5.4518, 34.7288, 33.6292, 80.80, 3.9178, 1465.93, 27.20, 0.9, 12.70, 11.5, 52
2008/04/15, 01:17:44, 2230.00, 0.00, -2.53, -1.90, 1004.0, 77.0189250, 9.4757980, , 346.70, 12.24, 342.60, 1004.17, 0.70, 0.0, 36.15, 81.99, 87.1, 21, 17.1, 33.61590, 34.72800, 5.4379, 34.7280, 33.6159, 80.20, 3.9205, 1465.94, 33.10, 7.4, 12.69, 11.7, 52
2008/04/15, 01:18:43, 2228.00, 0.00, -2.61, -1.90, 1003.8, 77.0221530, 9.4724280, , 345.70, 11.82, 341.50, 1004.28, 0.60, 0.0, 36.15, 82.06, 87.9, 22, 18.6, 33.60390, 34.72630, 5.4261, 34.7263, 33.6039, 80.20, 3.9245, 1465.95, 30.10, 8.4, 13.08, 13.0, 52
2008/04/15, 01:19:43, 2226.00, 0.00, -2.39, -1.90, 1003.7, 77.0254400, 9.4689500, , 347.30, 12.45, 340.60, 1004.28, 0.60, 0.0, 36.16, 83.44, 88.9, 13, 16.3, 33.60860, 34.72440, 5.4332, 34.7244, 33.6086, 79.90, 3.9303, 1465.97, 23.60, 354.4, 11.04, 10.1, 52
2008/04/15, 01:20:43, 2223.00, 0.00, -2.44, -1.70, 1003.6, 77.0287220, 9.4655030, , 351.50, 12.10, 342.30, 1004.05, 0.90, 0.2, 36.16, 84.57, 90.7, 19, 16.7, 33.58890, 34.72130, 5.4144, 34.7213, 33.5889, 80.50, 3.9408, 1466.02, 22.70, 5.4, 11.57, 10.5, 52
2008/04/15, 01:21:43, 2221.00, 0.00, -2.53, -1.70, 1003.2, 77.0319880, 9.4622620, , 348.40, 12.26, 341.70, 1004.08, 0.40, 0.0, 36.16, 85.03, 90.6, 18, 17.1, 33.57930, 34.71950, 5.4055, 34.7195, 33.5793, 81.20, 3.9535, 1466.06, 20.90, 2.4, 11.96, 10.8, 52
2008/04/15, 01:22:44, 2221.00, 0.00, -2.75, -1.80, 1003.1, 77.0351700, 9.4589670, , 346.70, 11.57, 340.30, 1003.78, 0.60, 1.1, 36.18, 85.06, 90.6, 6, 17.8, 33.57290, 34.71940, 5.3985, 34.7194, 33.5729, 83.00, 3.9556, 1466.07, 14.10, 342.3, 13.12, 11.7, 52
2008/04/15, 01:23:43, 2221.00, 0.00, -2.70, -2.00, 1003.5, 77.0384150, 9.4552030, , 345.90, 11.43, 341.70, 1004.14, 0.60, 0.0, 36.18, 85.03, 90.2, 15, 14.4, 33.57250, 34.71930, 5.3982, 34.7193, 33.5725, 83.90, 3.9203, 1465.93, 20.20, 0.2, 12.63, 8.7, 52
2008/04/15, 01:24:44, 2222.00, 0.00, -2.72, -2.00, 1003.5, 77.0415400, 9.4514350, , 345.20, 11.82, 340.60, 1003.69, 0.60, 0.0, 36.18, 85.23, 91.0, 12, 19.3, 33.57440, 34.72050, 5.3991, 34.7205, 33.5744, 83.20, 3.8002, 1465.43, 15.00, 353.0, 12.23, 13.1, 52
2008/04/15, 01:25:44, 2224.00, 0.00, -2.81, -2.00, 1003.3, 77.0445620, 9.4476370, , 344.20, 11.72, 342.20, 1004.09, 0.50, 0.0, 36.18, 85.21, 90.7, 17, 17.6, 33.58420, 34.72350, 5.4071, 34.7235, 33.5842, 82.70, 3.6369, 1464.74, 23.10, 359.9, 12.52, 12.4, 52
2008/04/15, 01:26:43, 2223.00, 0.00, -2.61, -2.00, 1003.7, 77.0475450, 9.4444570, , 345.70, 10.79, 340.60, 1004.30, 0.70, 0.0, 36.18, 85.40, 90.9, 8, 19.9, 33.58780, 34.72510, 5.4096, 34.7251, 33.5878, 82.00, 3.4901, 1464.13, 19.40, 347.3, 12.13, 14.5, 52
2008/04/15, 01:27:44, 2222.00, 0.00, -2.56, -2.00, 1003.7, 77.0504320, 9.4407170, , 345.60, 10.39, 340.00, 1004.41, 0.70, 0.1, 36.18, 85.40, 91.3, 13, 16.7, 33.61940, 34.72720, 5.4425, 34.7272, 33.6194, 82.70, 3.3731, 1463.64, 16.80, 355.3, 12.11, 10.8, 52
2008/04/15, 01:28:43, 2221.00, 0.00, -2.70, -2.00, 1003.5, 77.0534100, 9.4370630, , 345.00, 11.70, 341.00, 1004.13, 0.80, 0.4, 36.19, 85.18, 91.1, 7, 17.9, 33.61730, 34.73320, 5.4344, 34.7332, 33.6173, 80.80, 3.2827, 1463.26, 20.30, 346.4, 11.63, 12.0, 52
2008/04/15, 01:29:43, 2231.00, 0.00, -2.92, -2.00, 1003.3, 77.0563250, 9.4337980, , 345.10, 11.47, 340.40, 1003.88, 0.60, 0.1, 36.19, 84.84, 90.5, 8, 16.6, 33.66620, 34.74010, 5.4818, 34.7401, 33.6662, 78.10, 3.2140, 1462.98, 17.80, 346.9, 12.59, 10.6, 52
2008/04/15, 01:30:43, 2228.00, 0.00, -2.81, -2.10, 1003.3, 77.0593220, 9.4303580, , 347.60, 10.89, 342.70, 1003.75, 0.60, 0.0, 36.19, 84.77, 90.6, 5, 15.8, 33.65920, 34.74490, 5.4695, 34.7449, 33.6592, 76.30, 3.1613, 1462.76, 15.20, 344.1, 12.76, 9.9, 52